#timestamp,LO_Frequency,Hit 
1501765215.5,286046979.8,N
1501765235.3,286046977.8,N
1501765255.1,286046977.4,N
1501765275.9,286046977.9,N
1501765295.7,286046977.4,N
1501765315.5,286046977.7,N
1501765335.4,286046977.4,N
1501765355.2,286046980.3,N
1501765375.0,286046979.1,N
1501765375.9,286046979.1,N
1501765395.7,286046980.0,N
1501765415.6,286046979.3,N
1501765435.4,286046980.1,N
1501765455.2,286046979.0,N
1501765475.1,286046978.9,N
1501765476.0,286046978.9,N
1501765495.8,286046979.8,N
1501765515.6,286046981.6,N
1501765535.5,286046981.6,N
1501765555.3,286046982.0,N
1501765575.1,286046979.4,N
1501765595.9,286046980.2,N
1501765615.7,286046977.8,N
1501765635.5,286046981.2,N
1501765655.3,286046989.5,N
1501765675.2,286046997.5,N
1501765695.0,286047007.0,N
1501765695.9,286047007.0,N
1501765715.7,286047011.7,N
1501765735.6,286047009.7,N
1501765755.4,286047008.1,N
1501765775.2,286047011.5,N
1501765795.1,286047015.5,N
1501765796.0,286047015.5,N
1501765815.8,286047016.2,N
1501765835.6,286047019.5,N
1501765855.5,286047022.6,N
1501765875.3,286047030.4,N
1501765895.1,286047035.9,N
1501765915.9,286047037.7,N
1501765935.7,286047040.5,N
1501765955.5,286047045.9,N
1501765975.3,286047045.5,N
1501765995.2,286047041.9,N
1501766015.0,286047041.1,N
1501766015.9,286047041.1,N
1501766035.7,286047038.3,N
1501766055.6,286047033.4,N
1501766075.4,286047035.3,N
1501766095.2,286047031.7,N
1501766115.1,286047032.4,N
1501766116.0,286047032.4,N
1501766135.8,286047030.0,N
1501766155.6,286047034.4,N
1501766175.5,286047036.2,N
1501766195.3,286047034.5,N
1501766215.1,286047032.7,N
1501766235.8,286047031.7,N
1501766255.7,286047032.3,N
1501766275.5,286047034.4,N
1501766295.3,286047036.3,N
1501766315.2,286047034.0,N
1501766335.9,286047035.9,N
1501766355.7,286047033.3,N
1501766375.6,286047035.1,N
1501766395.4,286047033.7,N
1501766415.2,286047033.7,N
1501766435.1,286047032.6,N
1501766436.0,286047032.6,N
1501766455.8,286047032.0,N
1501766475.7,286047039.5,N
1501766495.6,286047040.2,N
1501766515.4,286047041.5,N
1501766535.2,286047038.7,N
1501766555.0,286047037.4,N
1501766555.9,286047037.4,N
1501766575.8,286047036.5,N
1501766595.6,286047040.6,N
1501766615.4,286047044.1,N
1501766635.3,286047043.9,N
1501766655.1,286047044.5,N
1501766675.8,286047044.8,N
1501766695.7,286047045.8,N
1501766715.5,286047044.7,N
1501766735.3,286047045.5,N
1501766755.2,286047041.7,N
1501766775.9,286047043.4,N
1501766795.7,286047045.8,N
1501766815.5,286047045.1,N
1501766835.4,286047046.7,N
1501766855.2,286047050.1,N
1501766875.0,286047049.9,N
1501766875.9,286047049.9,N
1501766895.8,286047051.6,N
1501766915.6,286047050.2,N
1501766935.4,286047049.9,N
1501766955.3,286047049.9,N
1501766975.1,286047050.4,N
1501766976.0,286047050.4,N
1501766995.8,286047050.3,N
1501767015.7,286047050.9,N
1501767035.5,286047054.2,N
1501767055.3,286047052.8,N
1501767075.1,286047053.1,N
1501767095.9,286047053.1,N
1501767115.7,286047049.9,N
1501767135.5,286047049.8,N
1501767155.4,286047052.0,N
1501767175.2,286047049.6,N
1501767195.0,286047052.4,N
1501767195.9,286047052.4,N
1501767215.8,286047053.5,N
1501767235.6,286047050.9,N
1501767255.4,286047051.1,N
1501767275.3,286047051.4,N
1501767295.1,286047052.4,N
1501767296.0,286047052.4,N
1501767315.8,286047055.0,N
1501767335.7,286047057.1,N
1501767355.5,286047055.6,N
1501767375.3,286047055.2,N
1501767395.1,286047054.5,N
1501767415.9,286047055.8,N
1501767435.7,286047056.8,N
1501767455.5,286047054.3,N
1501767475.4,286047056.7,N
1501767495.2,286047056.7,N
1501767515.0,286047055.2,N
1501767515.9,286047055.2,N
1501767535.8,286047054.0,N
1501767555.6,286047050.1,N
1501767575.4,286047051.3,N
1501767595.3,286047051.8,N
1501767615.1,286047051.1,N
1501767616.0,286047051.1,N
1501767635.8,286047053.8,N
1501767655.6,286047052.6,N
1501767675.5,286047054.6,N
1501767695.3,286047054.1,N
1501767715.1,286047053.6,N
1501767735.9,286047055.2,N
1501767755.7,286047056.7,N
1501767775.5,286047058.1,N
1501767795.4,286047060.2,N
1501767815.2,286047057.7,N
1501767835.0,286047054.3,N
1501767835.9,286047054.3,N
1501767855.8,286047056.0,N
1501767875.6,286047062.9,N
1501767895.4,286047068.1,N
1501767915.3,286047072.1,N
1501767935.1,286047073.5,N
1501767936.0,286047073.5,N
1501767955.8,286047074.6,N
1501767975.7,286047070.4,N
1501767995.5,286047071.3,N
1501768015.3,286047070.0,N
1501768035.1,286047068.8,N
1501768055.9,286047071.1,N
1501768075.7,286047074.0,N
1501768095.5,286047071.7,N
1501768115.4,286047075.6,N
1501768135.2,286047077.5,N
1501768155.0,286047074.1,N
1501768155.9,286047074.1,N
1501768175.8,286047070.1,N
1501768195.6,286047068.7,N
1501768215.4,286047070.6,N
1501768235.3,286047072.7,N
1501768255.1,286047073.1,N
1501768256.0,286047073.1,N
1501768275.8,286047072.1,N
1501768295.6,286047074.0,N
1501768315.5,286047074.4,N
1501768335.3,286047072.2,N
1501768355.1,286047073.2,N
1501768375.9,286047072.4,N
1501768395.7,286047072.7,N
1501768415.5,286047075.9,N
1501768435.4,286047074.6,N
1501768455.2,286047073.0,N
1501768475.0,286047070.7,N
1501768475.9,286047070.7,N
1501768495.8,286047070.8,N
1501768515.6,286047072.3,N
1501768535.4,286047073.9,N
1501768555.3,286047072.4,N
1501768575.1,286047070.2,N
1501768576.0,286047070.2,N
1501768595.8,286047069.8,N
1501768615.7,286047070.4,N
1501768635.5,286047070.4,N
1501768655.3,286047068.5,N
1501768675.1,286047067.0,N
1501768695.9,286047067.0,N
1501768715.7,286047069.4,N
1501768735.5,286047069.9,N
1501768755.4,286047070.3,N
1501768775.2,286047075.6,N
1501768795.0,286047082.6,N
1501768795.9,286047082.6,N
